YAMAL 601

Last updated on Sept. 24, 2020, 5:43 a.m. UTC

1 44307U 19031A   20267.18105038  .00000101  00000-0  00000-0 0  9997
2 44307   0.0242 181.7489 0001808 354.5225 300.3827  1.00270134  4947
UTC
Height (km)
Latitude
Longitude
Inclination
Orbital Period
UTC large
Height (km)
Speed (km/s)
/
Latitude / Longitude
Inclination (degrees)
Orbital Period (minutes)
Azimuth
Elevation
Range (km)
Doppler Factor
iOS Compass Heading
iOS Angle

Next 30 passes for location: Hong Kong

Rise time Rise Azimuth (degrees) Set time Set Azimuth (degrees) Duration Max altitude (degrees)

No matching passes for this satellites